FLOCK 4P-6 (44817 NORAD) Tracking and Keplerian Element Data

This shows tracking and keplerian element data for the satellite.

Feedback or suggestion? Click here.




ElementValue
Catalog44817
NameFLOCK 4P-6
Epoch Orbit854
Epoch Day22.43442355
Epoch Year2020
RAAN84.2776
Inclination97.5168
Eccentricity0.0012329
Argument of Perigee50.5175
Mean Anonmoly309.7148
Mean Motion15.1977534
Decay Rate5.04E-06
L11 44817U 19081P 20022.43442355 .00000504 00000-0 26773-4 0 9997
L22 44817 97.5168 84.2776 0012329 50.5175 309.7148 15.19775340 8547

Live tracking and technical data element details for FLOCK 4P-6 (NORAD 44817). FLOCK 4P-6 can be tracked NOW for your location showing map with azimuth and elevation plus other details from your city location.

Track the satellite on the map from your city or location and see movement details for azimuth, elevation, latitude, longitude, range, height, and movement on the map or in text.







IsCatalogInMostPopularTable: catalog: 44817, numindb: 7
Update: records affected: 1



GetName: 44817 FLOCK 4P-6

Hit Count: updated at: Fri, 24 Jan 2020 15:03:04 GMT